Weather History for Hazen, ND

Change the Weather History Date:

Sunday, June 16, 2013

  Actual Average (KN60) Record (KN60)
Temperature  
Mean Temperature 60 °F -  
Max Temperature 75 °F 69 °F 80 °F (2002)
Min Temperature 44 °F 48 °F 38 °F (2008)
Degree Days  
Heating Degree Days 6    
Growing Degree Days 10 (Base 50)    
Moisture  
Dew Point 48 °F    
Average Humidity 63    
Maximum Humidity 93    
Minimum Humidity 36    
Precipitation  
Precipitation 0.00 in - - ()
Sea Level Pressure  
Sea Level Pressure 29.94 in    
Wind  
Wind Speed 8 mph (WNW)    
Max Wind Speed 26 mph    
Max Gust Speed 38 mph    
Visibility 10 miles    
Events      
Averages and records for this station are not official NWS values.
T = Trace of Precipitation, MM = Missing Value Source: NWS Daily Summary

Daily Weather History Graph

Daily Weather History Graph

Search for Another Location

Airport:

Trip Planner

Search our weather history database for the weather conditions in past years. The results will help you decide how hot, cold, wet, or windy it might be!

Date:

Astronomy

Jun. 16, 2013 Rise Set
Actual Time 5:49 AM CDT 9:44 PM CDT
Civil Twilight 5:09 AM CDT 10:25 PM CDT
Nautical Twilight 4:13 AM CDT 11:20 PM CDT
Astronomical Twilight 2:48 AM CDT 12:46 AM CDT
Moon 1:57 PM CDT (6/16) 1:23 AM CDT (6/16)
Length of Visible Light 17h 16m
Length of Day
15h 55m
Waxing Crescent, 50% of the Moon is Illuminated
Jun 16
Waxing Crescent
Jun 16
First Quarter
Jun 23
Full
Jun 29
Last Quarter
Jul 8
New

Hourly Weather History & Observations

Time (CDT) Temp. Windchill Dew Point Humidity Pressure Visibility Wind Dir Wind Speed Gust Speed Precip Events Conditions
12:15 AM 48.2 °F - 46.4 °F 93% 29.92 in 10.0 mi Calm Calm - N/A   Clear
12:35 AM 48.2 °F - 46.4 °F 93% 29.92 in 10.0 mi WSW 4.6 mph - N/A   Clear
12:55 AM 50.0 °F - 46.4 °F 87% 29.92 in 10.0 mi WSW 5.8 mph - N/A   Clear
1:15 AM 48.2 °F - 44.6 °F 87% 29.92 in 10.0 mi Calm Calm - N/A   Clear
1:35 AM 46.4 °F 44.3 °F 44.6 °F 93% 29.92 in 10.0 mi WSW 4.6 mph - N/A   Clear
1:55 AM 48.2 °F - 44.6 °F 87% 29.92 in 10.0 mi WSW 3.5 mph - N/A   Clear
2:15 AM 48.2 °F - 46.4 °F 93% 29.92 in 10.0 mi WSW 4.6 mph - N/A   Clear
2:35 AM 50.0 °F - 46.4 °F 87% 29.92 in 10.0 mi WSW 4.6 mph - N/A   Clear
2:55 AM 48.2 °F - 44.6 °F 87% 29.92 in 10.0 mi Calm Calm - N/A   Clear
3:15 AM 44.6 °F - 42.8 °F 93% 29.92 in 7.0 mi Calm Calm - N/A   Clear
3:35 AM 44.6 °F - 41.0 °F 87% 29.92 in 10.0 mi Calm Calm - N/A   Clear
3:55 AM 46.4 °F - 44.6 °F 93% 29.92 in 10.0 mi Calm Calm - N/A   Clear
4:15 AM 48.2 °F - 44.6 °F 87% 29.92 in 10.0 mi West 4.6 mph - N/A   Clear
4:35 AM 46.4 °F 44.3 °F 44.6 °F 93% 29.92 in 10.0 mi SW 4.6 mph - N/A   Clear
4:55 AM 48.2 °F - 44.6 °F 87% 29.92 in 10.0 mi SW 3.5 mph - N/A   Clear
5:15 AM 48.2 °F - 44.6 °F 87% 29.92 in 10.0 mi WSW 3.5 mph - N/A   Clear
5:35 AM 48.2 °F - 44.6 °F 87% 29.92 in 10.0 mi SSW 3.5 mph - N/A   Clear
5:55 AM 48.2 °F - 44.6 °F 87% 29.92 in 10.0 mi Calm Calm - N/A   Clear
6:15 AM 50.0 °F - 46.4 °F 87% 29.93 in 10.0 mi WSW 6.9 mph - N/A   Clear
6:35 AM 50.0 °F - 46.4 °F 87% 29.93 in 10.0 mi WSW 4.6 mph - N/A   Clear
6:55 AM 50.0 °F - 46.4 °F 87% 29.94 in 10.0 mi WNW 4.6 mph - N/A   Clear
7:15 AM 51.8 °F - 46.4 °F 82% 29.94 in 10.0 mi WSW 4.6 mph - N/A   Clear
7:35 AM 53.6 °F - 48.2 °F 82% 29.95 in 10.0 mi West 5.8 mph - N/A   Clear
7:55 AM 55.4 °F - 48.2 °F 77% 29.95 in 10.0 mi SW 6.9 mph - N/A   Clear
8:15 AM 57.2 °F - 48.2 °F 72% 29.95 in 10.0 mi SW 9.2 mph - N/A   Clear
8:55 AM 62.6 °F - 48.2 °F 59% 29.95 in 10.0 mi West 10.4 mph - N/A   Clear
9:15 AM 62.6 °F - 50.0 °F 63% 29.95 in 10.0 mi WSW 12.7 mph - N/A   Clear
9:35 AM 64.4 °F - 50.0 °F 59% 29.95 in 10.0 mi WSW 11.5 mph - N/A   Clear
9:55 AM 66.2 °F - 50.0 °F 56% 29.95 in 10.0 mi WSW 9.2 mph - N/A   Clear
10:35 AM 69.8 °F - 50.0 °F 49% 29.94 in 10.0 mi WNW 11.5 mph 20.7 mph N/A   Clear
10:55 AM 71.6 °F - 51.8 °F 50% 29.94 in 10.0 mi West 12.7 mph 18.4 mph N/A   Clear
11:15 AM 71.6 °F - 48.2 °F 43% 29.93 in 10.0 mi WNW 16.1 mph 23.0 mph N/A   Clear
11:35 AM 73.4 °F - 48.2 °F 41% 29.93 in 10.0 mi WNW 18.4 mph 25.3 mph N/A   Clear
11:55 AM 73.4 °F - 48.2 °F 41% 29.93 in 10.0 mi West 19.6 mph 25.3 mph N/A   Clear
12:15 PM 73.4 °F - 48.2 °F 41% 29.93 in 10.0 mi WNW 13.8 mph 24.2 mph N/A   Clear
12:35 PM 73.4 °F - 48.2 °F 41% 29.94 in 10.0 mi WNW 17.3 mph 23.0 mph N/A   Clear
12:55 PM 73.4 °F - 46.4 °F 38% 29.94 in 10.0 mi WNW 23.0 mph 29.9 mph N/A   Clear
1:15 PM 75.2 °F - 46.4 °F 36% 29.94 in 10.0 mi West 25.3 mph 29.9 mph N/A   Clear
1:35 PM 73.4 °F - 46.4 °F 38% 29.94 in 10.0 mi WNW 19.6 mph 29.9 mph N/A   Clear
1:55 PM 73.4 °F - 48.2 °F 41% 29.94 in 10.0 mi WNW 15.0 mph 26.5 mph N/A   Clear
2:15 PM 75.2 °F - 50.0 °F 41% 29.94 in 10.0 mi WNW 13.8 mph 26.5 mph N/A   Clear
2:35 PM 75.2 °F - 48.2 °F 38% 29.94 in 10.0 mi WNW 17.3 mph 29.9 mph N/A   Clear
2:55 PM 75.2 °F - 46.4 °F 36% 29.94 in 10.0 mi NW 21.9 mph 28.8 mph N/A   Clear
3:15 PM 75.2 °F - 48.2 °F 38% 29.94 in 10.0 mi WNW 18.4 mph 32.2 mph N/A   Clear
3:35 PM 75.2 °F - 48.2 °F 38% 29.94 in 10.0 mi WNW 15.0 mph 38.0 mph N/A   Partly Cloudy
3:55 PM 75.2 °F - 48.2 °F 38% 29.94 in 10.0 mi NW 15.0 mph 33.4 mph N/A   Partly Cloudy
4:15 PM 75.2 °F - 48.2 °F 38% 29.94 in 10.0 mi West 26.5 mph 33.4 mph N/A   Scattered Clouds
4:35 PM 73.4 °F - 50.0 °F 44% 29.94 in 10.0 mi NW 18.4 mph 27.6 mph N/A   Scattered Clouds
4:55 PM 75.2 °F - 50.0 °F 41% 29.94 in 10.0 mi NW 11.5 mph 25.3 mph N/A   Mostly Cloudy
5:15 PM 73.4 °F - 48.2 °F 41% 29.94 in 10.0 mi NW 17.3 mph 24.2 mph N/A   Mostly Cloudy
5:35 PM 73.4 °F - 50.0 °F 44% 29.94 in 10.0 mi NW 16.1 mph 26.5 mph N/A   Mostly Cloudy
5:55 PM 73.4 °F - 48.2 °F 41% 29.95 in 10.0 mi WNW 21.9 mph 28.8 mph N/A   Scattered Clouds
6:15 PM 73.4 °F - 48.2 °F 41% 29.95 in 10.0 mi NW 13.8 mph 23.0 mph N/A   Partly Cloudy
6:35 PM 73.4 °F - 48.2 °F 41% 29.95 in 10.0 mi NNW 19.6 mph 27.6 mph N/A   Partly Cloudy
6:55 PM 71.6 °F - 48.2 °F 43% 29.95 in 10.0 mi NW 16.1 mph 26.5 mph N/A   Scattered Clouds
7:15 PM 71.6 °F - 48.2 °F 43% 29.96 in 10.0 mi NW 16.1 mph 21.9 mph N/A   Partly Cloudy
7:35 PM 71.6 °F - 48.2 °F 43% 29.96 in 10.0 mi NW 15.0 mph 21.9 mph N/A   Scattered Clouds
7:55 PM 68.0 °F - 48.2 °F 49% 29.96 in 10.0 mi NW 12.7 mph 17.3 mph N/A   Scattered Clouds
8:15 PM 68.0 °F - 50.0 °F 52% 29.96 in 10.0 mi NW 10.4 mph 18.4 mph N/A   Partly Cloudy
8:35 PM 68.0 °F - 50.0 °F 52% 29.97 in 10.0 mi NW 13.8 mph 17.3 mph N/A   Clear
8:55 PM 66.2 °F - 50.0 °F 56% 29.97 in 10.0 mi NW 10.4 mph - N/A   Clear
9:15 PM 64.4 °F - 51.8 °F 64% 29.97 in 10.0 mi NW 8.1 mph - N/A   Clear
9:35 PM 64.4 °F - 51.8 °F 64% 29.97 in 10.0 mi NW 6.9 mph - N/A   Clear
9:55 PM 62.6 °F - 50.0 °F 63% 29.98 in 10.0 mi WNW 6.9 mph - N/A   Clear
10:15 PM 60.8 °F - 50.0 °F 68% 29.99 in 10.0 mi WNW 6.9 mph - N/A   Clear
10:35 PM 59.0 °F - 50.0 °F 72% 29.99 in 10.0 mi WNW 4.6 mph - N/A   Clear
10:55 PM 57.2 °F - 50.0 °F 77% 30.00 in 10.0 mi WNW 6.9 mph - N/A   Clear
11:15 PM 57.2 °F - 50.0 °F 77% 30.00 in 10.0 mi West 5.8 mph - N/A   Clear
11:35 PM 55.4 °F - 50.0 °F 82% 30.01 in 10.0 mi West 4.6 mph - N/A   Clear
11:55 PM 57.2 °F - 50.0 °F 77% 30.01 in 10.0 mi WNW 5.8 mph - N/A   Clear